This demonstration page uses our WeatherBlox Daily Observations layout. Learn more.

Left ArrowRight Arrow

Hourly Observations for January 21, 2022

Temp ( °F °C ) Dew Point ( °F °C ) Humidity (%) Winds ( mph kmh ) Pressure ( in mb ) Visibility ( mi km ) Precip ( " mm )
12:15 am 00:15 Cloudy 18 -8 10 -12 73 73 NNE 9 15 30.59 1036 10 16 N/A
12:35 am 00:35 Cloudy 18 -8 10 -12 73 73 NNE 8 13 30.58 1035 10 16 N/A
12:55 am 00:55 Cloudy 18 -8 7 -14 62 62 NNE 7 11 30.58 1035 7 11 N/A
1:15 am 01:15 Cloudy 16 -9 7 -14 67 67 ENE 6 9 30.58 1036 10 16 N/A
1:35 am 01:35 Cloudy 14 -10 9 -13 79 79 ENE 5 7 30.57 1035 10 16 N/A
1:55 am 01:55 Cloudy 14 -10 7 -14 73 73 NE 6 9 30.57 1035 10 16 N/A
2:15 am 02:15 Cloudy 16 -9 9 -13 73 73 NNE 5 7 30.57 1035 10 16 N/A
2:35 am 02:35 Cloudy 16 -9 9 -13 73 73 NNE 6 9 30.57 1035 10 16 N/A
2:55 am 02:55 Cloudy 16 -9 9 -13 73 73 NE 6 9 30.58 1036 10 16 N/A
3:15 am 03:15 Cloudy 16 -9 9 -13 73 73 NE 6 9 30.57 1035 10 16 N/A
3:35 am 03:35 Cloudy 16 -9 9 -13 73 73 NE 6 9 30.57 1035 10 16 N/A
3:55 am 03:55 Cloudy 16 -9 9 -13 73 73 ENE 9 15 30.57 1035 10 16 N/A
4:15 am 04:15 Cloudy 16 -9 9 -13 73 73 NE 7 11 30.58 1036 10 16 N/A
4:35 am 04:35 Cloudy 18 -8 5 -15 58 58 ENE 7 11 30.58 1035 10 16 N/A
4:55 am 04:55 Cloudy 16 -9 5 -15 62 62 NE 9 15 30.58 1036 10 16 N/A
5:15 am 05:15 Cloudy 16 -9 5 -15 62 62 ENE 9 15 30.59 1036 10 16 N/A
5:35 am 05:35 Cloudy 16 -9 3 -16 57 57 NE 6 9 30.59 1036 10 16 N/A
5:55 am 05:55 Cloudy 14 -10 5 -15 67 67 NE 7 11 30.59 1036 10 16 N/A
6:15 am 06:15 Mostly Cloudy 12 -11 5 -15 73 73 NE 5 7 30.61 1037 10 16 N/A
6:35 am 06:35 Cloudy 12 -11 5 -15 73 73 NNE 6 9 30.61 1037 10 16 N/A
6:55 am 06:55 Cloudy 14 -10 7 -14 73 73 NE 8 13 30.61 1037 10 16 N/A
7:15 am 07:15 Cloudy 14 -10 7 -14 73 73 NE 6 9 30.61 1037 10 16 N/A
7:35 am 07:35 Cloudy 16 -9 5 -15 62 62 NE 7 11 30.62 1037 10 16 N/A
7:55 am 07:55 Cloudy 16 -9 5 -15 62 62 ENE 7 11 30.62 1037 10 16 N/A
8:15 am 08:15 Cloudy 16 -9 5 -15 62 62 ENE 6 9 30.63 1037 10 16 N/A
8:35 am 08:35 Cloudy 16 -9 5 -15 62 62 ENE 9 15 30.63 1037 10 16 N/A
8:55 am 08:55 Cloudy 16 -9 5 -15 62 62 ENE 9 15 30.62 1037 10 16 N/A
9:15 am 09:15 Cloudy 16 -9 5 -15 62 62 ENE 6 9 30.63 1037 10 16 N/A
9:35 am 09:35 Cloudy 18 -8 7 -14 62 62 NE 6 9 30.63 1037 10 16 N/A
9:55 am 09:55 Cloudy 18 -8 7 -14 62 62 NE 6 9 30.64 1037 10 16 N/A
10:15 am 10:15 Cloudy 18 -8 7 -14 62 62 NE 7 11 30.63 1037 10 16 N/A
10:35 am 10:35 Cloudy 18 -8 7 -14 62 62 ENE 7 11 30.62 1037 10 16 N/A
10:55 am 10:55 Cloudy 19 -7 7 -14 58 58 E 7 11 30.61 1037 10 16 N/A
11:15 am 11:15 Cloudy 19 -7 7 -14 58 58 ENE 13 20 30.62 1037 10 16 N/A
11:35 am 11:35 Cloudy 23 -5 9 -13 54 54 ENE 10 17 30.60 1036 10 16 N/A
11:55 am 11:55 Mostly Cloudy 23 -5 7 -14 50 50 ESE 10 17 30.60 1036 10 16 N/A
12:15 pm 12:15 Mostly Cloudy 19 -7 7 -14 58 58 ESE 9 15 30.61 1037 10 16 N/A
12:35 pm 12:35 Mostly Cloudy 19 -7 7 -14 58 58 ENE 6 9 30.60 1036 10 16 N/A
12:55 pm 12:55 Mostly Cloudy 21 -6 7 -14 54 54 E 7 11 30.59 1036 10 16 N/A
1:15 pm 13:15 Partly Cloudy 23 -5 9 -13 54 54 ESE 8 13 30.58 1036 10 16 N/A
1:35 pm 13:35 Sunny 25 -4 9 -13 50 50 E 9 15 30.56 1035 10 16 N/A
1:55 pm 13:55 Sunny 23 -5 7 -14 50 50 E 7 11 30.56 1035 10 16 N/A
2:15 pm 14:15 Sunny 23 -5 7 -14 50 50 ENE 9 15 30.55 1035 10 16 N/A
2:35 pm 14:35 Sunny 25 -4 7 -14 46 46 E 8 13 30.55 1035 10 16 N/A
2:55 pm 14:55 Sunny 25 -4 7 -14 46 46 NE 5 7 30.54 1034 10 16 N/A
3:15 pm 15:15 Sunny 25 -4 7 -14 46 46 ENE 6 9 30.54 1034 10 16 N/A
3:35 pm 15:35 Sunny 25 -4 7 -14 46 46 ESE 7 11 30.54 1034 10 16 N/A
3:55 pm 15:55 Sunny 25 -4 7 -14 46 46 E 6 9 30.54 1034 10 16 N/A
4:15 pm 16:15 Sunny 23 -5 9 -13 54 54 ENE 6 9 30.55 1035 10 16 N/A
4:35 pm 16:35 Sunny 23 -5 9 -13 54 54 E 5 7 30.54 1034 10 16 N/A
4:55 pm 16:55 Sunny 23 -5 9 -13 54 54 E 8 13 30.54 1034 10 16 N/A
5:15 pm 17:15 Sunny 23 -5 9 -13 54 54 E 6 9 30.54 1034 10 16 N/A
5:35 pm 17:35 Sunny 21 -6 9 -13 58 58 Calm 30.56 1035 10 16 N/A
5:55 pm 17:55 Clear 19 -7 9 -13 63 63 E 5 7 30.55 1035 10 16 N/A
6:15 pm 18:15 Clear 18 -8 9 -13 68 68 ESE 3 6 30.57 1035 10 16 N/A
6:35 pm 18:35 Clear 18 -8 9 -13 68 68 Calm 30.57 1035 10 16 N/A
6:55 pm 18:55 Clear 16 -9 9 -13 73 73 ESE 5 7 30.56 1035 10 16 N/A
7:15 pm 19:15 Clear 18 -8 9 -13 68 68 ESE 5 7 30.56 1035 10 16 N/A
7:35 pm 19:35 Clear 16 -9 9 -13 73 73 ESE 5 7 30.55 1035 10 16 N/A
7:55 pm 19:55 Clear 16 -9 9 -13 73 73 ESE 3 6 30.56 1035 10 16 N/A
8:15 pm 20:15 Clear 16 -9 9 -13 73 73 ESE 3 6 30.56 1035 10 16 N/A
8:35 pm 20:35 Clear 14 -10 9 -13 79 79 ESE 5 7 30.56 1035 10 16 N/A
8:55 pm 20:55 Clear 14 -10 9 -13 79 79 ESE 3 6 30.56 1035 10 16 N/A
9:15 pm 21:15 Clear 14 -10 9 -13 79 79 E 3 6 30.56 1035 10 16 N/A
9:35 pm 21:35 Clear 12 -11 9 -13 85 85 E 3 6 30.56 1035 10 16 N/A
9:55 pm 21:55 Clear 12 -11 9 -13 85 85 ESE 3 6 30.56 1035 10 16 N/A
10:15 pm 22:15 Clear 12 -11 9 -13 85 85 ESE 6 9 30.55 1034 10 16 N/A
10:35 pm 22:35 Clear 14 -10 9 -13 79 79 ESE 5 7 30.54 1034 10 16 N/A
10:55 pm 22:55 Clear 14 -10 9 -13 79 79 ESE 6 9 30.54 1034 10 16 N/A
11:15 pm 23:15 Clear 14 -10 9 -13 79 79 ESE 6 9 30.53 1034 10 16 N/A
11:35 pm 23:35 Clear 14 -10 9 -13 79 79 ESE 6 9 30.53 1034 10 16 N/A
11:55 pm 23:55 Clear 14 -10 7 -14 73 73 SE 5 7 30.53 1034 10 16 N/A

Powered by AerisWeather